{"data":{"norad_id":66319,"intl_designator":"2025-253A","name":"STARLINK-35442","alt_names":[],"object_type":"PAYLOAD","status":"ACTIVE","operator":null,"country":"US","launch_date":"2025-11-06","launch_site_code":"AFETR","launch_vehicle":null,"mission":null,"orbit_class":"UNKNOWN","rcs_meters":null,"size_class":null,"mass_kg":null,"dimensions":null,"purposes":["comms"],"wikipedia_slug":null,"has_3d_model":false,"image_url":null,"decayed_at":null,"tle_current":{"epoch":"2026-05-25T00:21:16.267104Z","epoch_age_seconds":77037,"freshness":"FRESH","line1":"1 66319U 25253A   26145.01477161  .00020596  00000+0  75564-3 0  9998","line2":"2 66319  42.9977 141.7944 0001434 277.6239  82.4450 15.27589932 31911","mean_motion":15.27589932,"eccentricity":0.0001434,"inclination_deg":42.9977,"raan_deg":141.7944,"arg_perigee_deg":277.6239,"mean_anomaly_deg":82.445,"bstar":0.00075564,"rev_number":3191,"period_min":94.266135815302,"perigee_km":482.03546639829,"apogee_km":484.00324604125,"semimajor_km":6861.1563562198,"source":"CELESTRAK","updated_at":"2026-05-25T13:38:21.166182Z"}}}